STARLINK-35191

Last updated on Tue Oct 14 2025 00:02:05 GMT+0000 (Coordinated Universal Time)

1 65594U 25207C 25286.58341435 .00120533 00000+0 30521-2 0 9997 2 65594 97.6041 350.0279 0001403 101.2646 198.4381 15.39264847 5820

Satellite not in orbit

STARLINK-35191